Weather History for St. Petersburg, FL

Change the Weather History Date:

Sunday, August 10, 2014

  Actual Average Record
Temperature  
Mean Temperature 86 °F -  
Max Temperature 89 °F 90 °F 95 °F (1972)
Min Temperature 82 °F 75 °F 71 °F (1989)
Cooling Degree Days 20    
Growing Degree Days 36 (Base 50)    
Moisture  
Dew Point 74 °F    
Average Humidity 72    
Maximum Humidity 85    
Minimum Humidity 59    
Precipitation  
Precipitation 0.17 in - - ()
Sea Level Pressure  
Sea Level Pressure 30.03 in    
Wind  
Wind Speed 6 mph (WSW)    
Max Wind Speed 17 mph    
Max Gust Speed 25 mph    
Visibility 9 miles    
Events Rain    
Averages and records for this station are not official NWS values.
T = Trace of Precipitation, MM = Missing Value Source: NWS Daily Summary

Daily Weather History Graph

Daily Weather History Graph

Search for Another Location

Airport:

Trip Planner

Search our weather history database for the weather conditions in past years. The results will help you decide how hot, cold, wet, or windy it might be!

Date:

Astronomy

Aug. 10, 2014 Rise Set
Actual Time 6:58 AM EDT 8:12 PM EDT
Civil Twilight 6:33 AM EDT 8:37 PM EDT
Nautical Twilight 6:04 AM EDT 9:07 PM EDT
Astronomical Twilight 5:33 AM EDT 9:37 PM EDT
Moon 8:06 PM EDT (8/10) 6:45 AM EDT (8/10)
Length of Visible Light 14h 04m
Length of Day
13h 14m
Full, 100% of the Moon is Illuminated
Aug 10
Full
Aug 10
Full
Aug 17
Last Quarter
Aug 25
New
Sep 2
First Quarter

Hourly Weather History & Observations

Time (EDT) Temp. Heat Index Dew Point Humidity Pressure Visibility Wind Dir Wind Speed Gust Speed Precip Events Conditions
12:53 AM 84.9 °F 93.3 °F 75.0 °F 72% 30.04 in 10.0 mi SW 3.5 mph - N/A   Clear
1:53 AM 82.0 °F 87.4 °F 73.0 °F 74% 30.03 in 10.0 mi Calm Calm - 0.01 in   Mostly Cloudy
2:53 AM 82.0 °F 88.6 °F 75.0 °F 79% 30.02 in 10.0 mi Calm Calm - N/A   Clear
3:53 AM 82.0 °F 89.4 °F 75.9 °F 82% 30.00 in 10.0 mi WSW 4.6 mph - N/A   Partly Cloudy
5:53 AM 82.9 °F 90.8 °F 75.9 °F 79% 30.00 in 10.0 mi WSW 3.5 mph - N/A   Clear
6:53 AM 82.9 °F 90.8 °F 75.9 °F 79% 30.01 in 10.0 mi SW 3.5 mph - N/A   Clear
8:23 AM 84.0 °F 94.8 °F 78.1 °F 82% 30.04 in 1.5 mi Variable 4.6 mph - 0.11 in Rain Heavy Rain
8:33 AM 82.0 °F 88.6 °F 75.0 °F 79% 30.03 in 3.0 mi South 5.8 mph - 0.13 in Rain Light Rain
8:53 AM 84.0 °F 96.0 °F 79.0 °F 85% 30.04 in 10.0 mi South 5.8 mph - 0.16 in   Overcast
10:53 AM 87.1 °F 95.4 °F 73.9 °F 65% 30.06 in 10.0 mi WSW 11.5 mph - N/A   Partly Cloudy
11:53 AM 88.0 °F 95.6 °F 73.0 °F 61% 30.06 in 10.0 mi SW 12.7 mph 19.6 mph N/A   Partly Cloudy
12:53 PM 89.1 °F 98.0 °F 73.9 °F 61% 30.05 in 10.0 mi WSW 13.8 mph - N/A   Scattered Clouds
1:53 PM 89.1 °F 97.0 °F 73.0 °F 59% 30.05 in 10.0 mi WSW 13.8 mph - N/A   Scattered Clouds
2:53 PM 89.1 °F 99.1 °F 75.0 °F 63% 30.04 in 10.0 mi West 17.3 mph 25.3 mph N/A   Partly Cloudy
3:53 PM 88.0 °F 95.6 °F 73.0 °F 61% 30.02 in 10.0 mi WSW 13.8 mph - N/A   Partly Cloudy
4:53 PM 84.0 °F 88.4 °F 70.0 °F 63% 30.04 in 10.0 mi North 12.7 mph 23.0 mph N/A   Mostly Cloudy
5:53 PM 82.9 °F 89.4 °F 73.9 °F 74% 30.03 in 10.0 mi NW 8.1 mph - N/A   Partly Cloudy
6:53 PM 82.0 °F 87.4 °F 73.0 °F 74% 30.02 in 10.0 mi NW 9.2 mph - N/A   Scattered Clouds
7:53 PM 82.0 °F 86.3 °F 71.1 °F 69% 30.00 in 10.0 mi WNW 4.6 mph - N/A   Clear
8:53 PM 82.0 °F 86.3 °F 71.1 °F 69% 29.99 in 10.0 mi WSW 3.5 mph - N/A   Clear
9:53 PM 82.0 °F 87.4 °F 73.0 °F 74% 30.01 in 10.0 mi SW 3.5 mph - N/A   Clear
10:53 PM 82.9 °F 89.4 °F 73.9 °F 74% 30.02 in 10.0 mi SW 4.6 mph - N/A   Clear